TimeEST,TemperatureF,Dew PointF,Humidity,Sea Level PressureIn,VisibilityMPH,Wind Direction,Wind SpeedMPH,Gust SpeedMPH,PrecipitationIn,Events,Conditions,WindDirDegrees,DateUTC
12:52 AM,32.0,23.0,69,29.70,10.0,NW,10.4,-,N/A,,Overcast,310,2013-03-03 05:52:00
1:52 AM,30.9,21.9,69,29.70,10.0,NNW,11.5,-,N/A,,Overcast,330,2013-03-03 06:52:00
2:52 AM,30.9,21.9,69,29.69,10.0,NNW,10.4,-,N/A,,Overcast,340,2013-03-03 07:52:00
3:52 AM,30.9,21.0,67,29.68,10.0,NNW,10.4,-,N/A,,Overcast,330,2013-03-03 08:52:00
4:52 AM,30.0,21.0,69,29.69,10.0,NNW,12.7,16.1,N/A,,Overcast,330,2013-03-03 09:52:00
5:52 AM,30.2,19.4,64,29.71,10.0,NNW,9.2,-,N/A,,Overcast,330,2013-03-03 10:52:00
6:52 AM,30.2,19.4,64,29.71,10.0,NNW,10.4,-,N/A,,Overcast,330,2013-03-03 11:52:00
7:52 AM,30.0,17.1,59,29.71,10.0,NW,11.5,20.7,N/A,,Overcast,310,2013-03-03 12:52:00
8:52 AM,32.0,18.0,56,29.70,10.0,NNW,11.5,-,N/A,,Overcast,340,2013-03-03 13:52:00
9:52 AM,33.8,17.6,52,29.69,10.0,NNW,17.3,23.0,N/A,,Overcast,330,2013-03-03 14:52:00
10:52 AM,35.1,17.1,48,29.68,10.0,WNW,16.1,23.0,N/A,,Overcast,300,2013-03-03 15:52:00
11:52 AM,35.1,18.0,50,29.68,10.0,NNW,13.8,21.9,N/A,,Overcast,340,2013-03-03 16:52:00
12:52 PM,36.0,18.0,48,29.66,10.0,NW,10.4,19.6,N/A,,Overcast,310,2013-03-03 17:52:00
1:52 PM,37.0,19.0,48,29.64,10.0,NNW,12.7,24.2,N/A,,Overcast,330,2013-03-03 18:52:00
2:52 PM,36.0,21.0,55,29.65,10.0,NW,16.1,27.6,N/A,,Overcast,310,2013-03-03 19:52:00
3:52 PM,34.0,23.0,64,29.65,10.0,NW,17.3,24.2,N/A,,Overcast,320,2013-03-03 20:52:00
4:06 PM,33.8,23.0,65,29.65,10.0,NNW,10.4,24.2,N/A,,Overcast,330,2013-03-03 21:06:00
4:52 PM,34.0,24.1,67,29.65,10.0,NNW,11.5,-,N/A,,Overcast,330,2013-03-03 21:52:00
5:52 PM,33.1,23.0,66,29.67,10.0,NNW,11.5,23.0,N/A,,Overcast,330,2013-03-03 22:52:00
6:52 PM,33.1,24.1,70,29.69,10.0,NW,9.2,-,N/A,,Overcast,320,2013-03-03 23:52:00
7:52 PM,33.1,24.1,70,29.70,10.0,NW,9.2,-,N/A,,Overcast,320,2013-03-04 00:52:00
8:52 PM,33.1,21.9,64,29.71,10.0,NW,11.5,-,N/A,,Overcast,310,2013-03-04 01:52:00
9:52 PM,33.1,19.9,59,29.71,10.0,NW,10.4,18.4,N/A,,Overcast,320,2013-03-04 02:52:00
10:52 PM,32.0,19.0,59,29.71,10.0,NW,11.5,-,N/A,,Overcast,310,2013-03-04 03:52:00
11:52 PM,32.0,19.4,60,29.71,10.0,NW,8.1,-,N/A,,Overcast,320,2013-03-04 04:52:00